Prague, Czech Republic

1:21 PM CEST on September 21, 2017 (GMT +0200)
Ruzyne

Weather History for LKPR - November, 2012

Change the Weather History Date:

Tuesday, November 27, 2012

  Actual Average Record
Temperature  
Mean Temperature 42 °F -  
Max Temperature 42 °F 36 °F 50 °F (2003)
Min Temperature 41 °F 27 °F 17 °F (2010)
Degree Days  
Heating Degree Days 24    
Moisture  
Dew Point 41 °F    
Average Humidity 96    
Maximum Humidity 100    
Minimum Humidity 89    
Precipitation  
Precipitation 0.00 in 0.03 in - ()
Sea Level Pressure  
Sea Level Pressure 29.72 in    
Wind  
Wind Speed 3 mph ()    
Max Wind Speed 7 mph    
Max Gust Speed -    
Visibility 3.0 miles    
Events Rain    
Averages and records for this station are not official NWS values.
T = Trace of Precipitation, MM = Missing Value Source: Averaged Metar Reports

Daily Weather History Graph

Daily Weather History Graph

Search for Another Location

Airport or City:

Trip Planner

Search our weather history database for the weather conditions in past years. The results will help you decide how hot, cold, wet, or windy it might be!

Date:

Astronomy

Nov. 27, 2012 Rise Set
Actual Time 7:34 AM CET 4:05 PM CET
Civil Twilight 6:57 AM CET 4:43 PM CET
Nautical Twilight 6:17 AM CET 5:23 PM CET
Astronomical Twilight 5:38 AM CET 6:02 PM CET
Moon 3:28 PM CET (11/27) 6:20 AM CET (11/27)
Length of Visible Light 9h 45m
Length of Day
8h 31m
Waxing Gibbous, 99% of the Moon is Illuminated
Nov 27
Waxing Gibbous
Nov 28
Full
Dec 6
Last Quarter
Dec 13
New
Dec 20
First Quarter

Hourly Weather History & Observations

Time (CET) Temp. Windchill Dew Point Humidity Pressure Visibility Wind Dir Wind Speed Gust Speed Precip Events Conditions
12:00 AM 42.8 °F 40.1 °F 41.0 °F 93% 29.74 in 5.6 mi ESE 4.6 mph - N/A   Overcast
12:21 AM 42.8 °F 38.6 °F 41.0 °F 93% 29.74 in 6.2 mi ESE 6.9 mph - N/A Rain Light Rain
12:30 AM 42.8 °F 39.3 °F 41.0 °F 93% 29.74 in 5.6 mi SSE 5.8 mph - N/A Rain Light Rain
1:00 AM 42 °F - 41 °F 93% 29.79 in 6 mi South 2.2 mph - - Rain Light Rain
1:00 AM 42.8 °F 41.1 °F 41.0 °F 93% 29.74 in 5.6 mi South 3.5 mph - N/A Rain Light Rain
1:30 AM 42.8 °F 41.1 °F 41.0 °F 93% 29.74 in 5.0 mi East 3.5 mph - N/A Rain Light Rain
2:00 AM 42.8 °F 41.1 °F 41.0 °F 93% 29.74 in 4.3 mi SSE 3.5 mph - N/A   Overcast
2:30 AM 42.8 °F 40.1 °F 41.0 °F 93% 29.71 in 4.3 mi ESE 4.6 mph - N/A   Mostly Cloudy
3:00 AM 42.8 °F 40.1 °F 41.0 °F 93% 29.71 in 4.3 mi ESE 4.6 mph - N/A   Overcast
3:30 AM 42.8 °F - 41.0 °F 93% 29.71 in 4.3 mi Variable 2.3 mph - N/A   Overcast
4:00 AM 41.0 °F - 41.0 °F 100% 29.71 in 4.3 mi ENE 2.3 mph - N/A   Overcast
4:30 AM 42.8 °F - 41.0 °F 93% 29.71 in 3.7 mi Variable 2.3 mph - N/A   Overcast
5:00 AM 42.8 °F - 41.0 °F 93% 29.71 in 5.6 mi Variable 2.3 mph - N/A   Overcast
5:30 AM 42.8 °F 41.1 °F 41.0 °F 93% 29.71 in 5.6 mi ESE 3.5 mph - N/A   Overcast
6:00 AM 41.0 °F 39.0 °F 41.0 °F 100% 29.71 in 5.0 mi SSE 3.5 mph - N/A   Overcast
6:30 AM 41.0 °F 38.0 °F 41.0 °F 100% 29.71 in 5.0 mi SSW 4.6 mph - N/A   Overcast
7:00 AM 42 °F - 40 °F 89% 29.76 in 6 mi 2.2 mph - -   Mist
7:00 AM 41.0 °F - 39.2 °F 93% 29.71 in 5.6 mi Variable 2.3 mph - N/A   Overcast
7:30 AM 41.0 °F - 39.2 °F 93% 29.71 in 4.3 mi Variable 2.3 mph - N/A   Overcast
8:00 AM 41.0 °F - 39.2 °F 93% 29.71 in 4.3 mi Variable 2.3 mph - N/A   Overcast
8:30 AM 41.0 °F 39.0 °F 41.0 °F 100% 29.74 in 3.7 mi SSE 3.5 mph - N/A   Overcast
9:00 AM 41.0 °F - 41.0 °F 100% 29.74 in 3.1 mi Variable 2.3 mph - N/A   Overcast
9:30 AM 42.8 °F 41.1 °F 41.0 °F 93% 29.74 in 2.5 mi South 3.5 mph - N/A   Overcast
10:00 AM 42.8 °F 41.1 °F 41.0 °F 93% 29.74 in 1.9 mi SSW 3.5 mph - N/A   Overcast
10:30 AM 41.0 °F 39.0 °F 41.0 °F 100% 29.74 in 1.9 mi WSW 3.5 mph - N/A   Light Drizzle
11:00 AM 42.8 °F - 41.0 °F 93% 29.74 in 2.2 mi West 2.3 mph - N/A   Overcast
11:30 AM 42.8 °F - 41.0 °F 93% 29.71 in 2.5 mi Calm Calm - N/A   Overcast
12:00 PM 42.8 °F 41.1 °F 41.0 °F 93% 29.74 in 2.2 mi WSW 3.5 mph - N/A   Overcast
12:30 PM 42.8 °F 41.1 °F 41.0 °F 93% 29.74 in 1.6 mi WNW 3.5 mph - N/A   Overcast
1:00 PM 42 °F - 41 °F 94% 29.77 in 1 mi NNW 4.5 mph - -   Mist
1:00 PM 42.8 °F - 41.0 °F 93% 29.74 in 1.4 mi Variable 2.3 mph - N/A   Overcast
1:30 PM 42.8 °F - 41.0 °F 93% 29.71 in 1.4 mi Variable 2.3 mph - N/A   Overcast
1:45 PM 42.8 °F - 41.0 °F 93% 29.71 in 1.9 mi Variable 2.3 mph - N/A   Overcast
2:00 PM 42.8 °F - 41.0 °F 93% 29.71 in 2.2 mi Variable 2.3 mph - N/A   Overcast
2:30 PM 42.8 °F 40.1 °F 41.0 °F 93% 29.71 in 2.5 mi East 4.6 mph - N/A   Overcast
3:00 PM 42.8 °F 40.1 °F 41.0 °F 93% 29.71 in 2.2 mi South 4.6 mph - N/A   Overcast
3:30 PM 42.8 °F 41.1 °F 41.0 °F 93% 29.71 in 2.5 mi South 3.5 mph - N/A   Overcast
4:00 PM 42.8 °F 39.3 °F 41.0 °F 93% 29.71 in 2.2 mi West 5.8 mph - N/A   Overcast
4:30 PM 42.8 °F - 41.0 °F 93% 29.71 in 2.5 mi Variable 2.3 mph - N/A   Overcast
4:52 PM 42.8 °F - 41.0 °F 93% 29.71 in 1.7 mi Variable 2.3 mph - N/A   Light Drizzle
5:00 PM 42.8 °F - 41.0 °F 93% 29.71 in 1.7 mi Variable 2.3 mph - N/A   Light Drizzle
5:08 PM 42.8 °F - 41.0 °F 93% 29.71 in 1.6 mi Calm Calm - N/A   Light Drizzle
5:30 PM 42.8 °F - 41.0 °F 93% 29.71 in 1.7 mi Calm Calm - N/A   Light Drizzle
6:00 PM 41.0 °F 38.0 °F 41.0 °F 100% 29.71 in 1.6 mi ENE 4.6 mph - N/A   Light Drizzle
6:30 PM 41.0 °F - 41.0 °F 100% 29.71 in 2.2 mi Variable 2.3 mph - N/A   Overcast
6:48 PM 41.0 °F - 41.0 °F 100% 29.71 in 2.8 mi Variable 1.2 mph - N/A   Overcast
7:00 PM 42 °F - 41 °F 95% 29.75 in 3 mi WNW 2.2 mph - - Rain Light Drizzle
7:00 PM 41.0 °F - 41.0 °F 100% 29.71 in 2.8 mi Variable 2.3 mph - N/A   Overcast
7:30 PM 41.0 °F 39.0 °F 41.0 °F 100% 29.71 in 1.6 mi North 3.5 mph - N/A   Overcast
8:00 PM 41.0 °F 39.0 °F 41.0 °F 100% 29.71 in 1.6 mi NE 3.5 mph - N/A   Overcast
8:30 PM 41.0 °F - 41.0 °F 100% 29.71 in 1.9 mi Variable 1.2 mph - N/A   Overcast
8:51 PM 41.0 °F 39.0 °F 41.0 °F 100% 29.71 in 1.9 mi North 3.5 mph - N/A   Overcast
9:00 PM 41.0 °F 39.0 °F 41.0 °F 100% 29.71 in 2.2 mi NNE 3.5 mph - N/A   Overcast
9:14 PM 41.0 °F 39.0 °F 41.0 °F 100% 29.71 in 2.5 mi NE 3.5 mph - N/A   Overcast
9:30 PM 41.0 °F - 41.0 °F 100% 29.71 in 1.9 mi East 2.3 mph - N/A   Overcast
9:42 PM 41.0 °F - 41.0 °F 100% 29.71 in 1.6 mi ENE 2.3 mph - N/A   Overcast
10:00 PM 41.0 °F 39.0 °F 41.0 °F 100% 29.68 in 1.6 mi ENE 3.5 mph - N/A   Overcast
10:30 PM 41.0 °F 39.0 °F 41.0 °F 100% 29.68 in 1.6 mi ENE 3.5 mph - N/A   Overcast
11:00 PM 41.0 °F 37.1 °F 41.0 °F 100% 29.68 in 1.6 mi NE 5.8 mph - N/A   Overcast
11:13 PM 41.0 °F 38.0 °F 41.0 °F 100% 29.68 in 0.7 mi NE 4.6 mph - N/A   Overcast
11:30 PM 41.0 °F 39.0 °F 41.0 °F 100% 29.68 in 0.8 mi NE 3.5 mph - N/A   Overcast
11:45 PM 41.0 °F 39.0 °F 41.0 °F 100% 29.68 in 1.0 mi NE 3.5 mph - N/A   Overcast